| time (UTC) | temp F | wind direction | speed MPH | gust MPH | rain 1hr in | rain 24hr in | rain mn in | humidity % | barometer mb |
| 20260903201559 | 61 | 340 | 7.0 | 15.0 | 0.33 | 0.33 | 0.33 | 75 | 1009.7 |
| 20260903194600 | 67 | 117 | 7.0 | 20.0 | 0.00 | 0.00 | 0.00 | 65 | 1010.2 |
| 20260903193101 | 75 | 115 | 2.0 | 19.0 | 0.00 | 0.00 | 0.00 | 48 | 1009.4 |
| 20260903191603 | 79 | 169 | 0.0 | 6.0 | 0.00 | 0.00 | 0.00 | 38 | 1008.9 |
| 20260903190059 | 79 | 243 | 1.0 | 9.0 | 0.00 | 0.00 | 0.00 | 39 | 1009.2 |
| 20260903190002 | 80 | 336 | 3.0 | 9.0 | 0.00 | 0.00 | 0.00 | 39 | 1009.2 |
| 20260903184559 | 80 | 268 | 3.0 | 10.0 | 0.00 | 0.00 | 0.00 | 38 | 1009.5 |
| 20260903183100 | 80 | 215 | 5.0 | 11.0 | 0.00 | 0.00 | 0.00 | 39 | 1009.9 |
| 20260903181558 | 78 | 261 | 3.0 | 10.0 | 0.00 | 0.00 | 0.00 | 40 | 1010.2 |
| 20260903180104 | 80 | 263 | 7.0 | 13.0 | 0.00 | 0.00 | 0.00 | 38 | 1010.5 |
| 20260903174600 | 81 | 244 | 5.0 | 9.0 | 0.00 | 0.00 | 0.00 | 36 | 1010.6 |
| 20260903173059 | 79 | 241 | 6.0 | 12.0 | 0.00 | 0.00 | 0.00 | 38 | 1010.7 |
| 20260903171611 | 78 | 261 | 4.0 | 7.0 | 0.00 | 0.00 | 0.00 | 40 | 1010.8 |
| 20260903170001 | 78 | 296 | 2.0 | 9.0 | 0.00 | 0.00 | 0.00 | 38 | 1010.9 |
| 20260903164634 | 79 | 279 | 5.0 | 8.0 | 0.00 | 0.00 | 0.00 | 39 | 1010.8 |
| 20260903163102 | 78 | 207 | 5.0 | 15.0 | 0.00 | 0.00 | 0.00 | 41 | 1010.8 |
| 20260903161559 | 77 | 126 | 5.0 | 13.0 | 0.00 | 0.00 | 0.00 | 41 | 1010.7 |
| 20260903160059 | 76 | 294 | 3.0 | 15.0 | 0.00 | 0.00 | 0.00 | 43 | 1010.6 |
| 20260903160003 | 76 | 269 | 4.0 | 15.0 | 0.00 | 0.00 | 0.00 | 43 | 1010.6 |
| 20260903154601 | 76 | 272 | 6.0 | 15.0 | 0.00 | 0.00 | 0.00 | 44 | 1010.6 |
| 20260903153100 | 76 | 251 | 4.0 | 10.0 | 0.00 | 0.00 | 0.00 | 44 | 1010.7 |
| 20260903151559 | 75 | 245 | 3.0 | 9.0 | 0.00 | 0.00 | 0.00 | 46 | 1010.7 |
| 20260903150100 | 74 | 248 | 4.0 | 7.0 | 0.00 | 0.00 | 0.00 | 47 | 1010.8 |
| 20260903144608 | 72 | 206 | 3.0 | 10.0 | 0.00 | 0.00 | 0.00 | 49 | 1010.9 |
| 20260903143059 | 69 | 263 | 3.0 | 8.0 | 0.00 | 0.00 | 0.00 | 55 | 1011.0 |
| 20260903141601 | 65 | 233 | 3.0 | 5.0 | 0.00 | 0.00 | 0.00 | 61 | 1011.1 |
| 20260903134601 | 60 | 276 | 3.0 | 6.0 | 0.00 | 0.00 | 0.00 | 67 | 1011.1 |
| 20260903133102 | 59 | 271 | 3.0 | 9.0 | 0.00 | 0.00 | 0.00 | 69 | 1010.9 |
| 20260903131558 | 58 | 263 | 4.0 | 7.0 | 0.00 | 0.00 | 0.00 | 70 | 1011.0 |
| 20260903130059 | 57 | 266 | 5.0 | 9.0 | 0.00 | 0.00 | 0.00 | 72 | 1010.8 |
| 20260903124608 | 57 | 265 | 4.0 | 9.0 | 0.00 | 0.00 | 0.00 | 72 | 1010.8 |
| 20260903123058 | 56 | 266 | 5.0 | 8.0 | 0.00 | 0.00 | 0.00 | 73 | 1010.8 |
| 20260903121603 | 56 | 287 | 4.0 | 8.0 | 0.00 | 0.00 | 0.00 | 73 | 1010.8 |
| 20260903120104 | 56 | 264 | 4.0 | 8.0 | 0.00 | 0.00 | 0.00 | 73 | 1010.8 |
| 20260903114558 | 56 | 279 | 4.0 | 8.0 | 0.00 | 0.00 | 0.00 | 73 | 1010.7 |
| 20260903113136 | 57 | 257 | 4.0 | 7.0 | 0.00 | 0.00 | 0.00 | 73 | 1010.7 |
| 20260903111558 | 57 | 261 | 4.0 | 9.0 | 0.00 | 0.00 | 0.00 | 72 | 1010.6 |
| 20260903110100 | 57 | 270 | 5.0 | 8.0 | 0.00 | 0.00 | 0.00 | 73 | 1010.5 |
| 20260903104609 | 57 | 264 | 4.0 | 9.0 | 0.00 | 0.00 | 0.00 | 73 | 1010.6 |
| 20260903103102 | 57 | 266 | 5.0 | 10.0 | 0.00 | 0.00 | 0.00 | 73 | 1010.7 |
| 20260903101602 | 57 | 269 | 7.0 | 12.0 | 0.00 | 0.00 | 0.00 | 73 | 1010.6 |
| 20260903100100 | 57 | 261 | 7.0 | 12.0 | 0.00 | 0.00 | 0.00 | 72 | 1010.7 |
| 20260903094559 | 57 | 284 | 6.0 | 10.0 | 0.00 | 0.00 | 0.00 | 72 | 1010.9 |
| 20260903093104 | 56 | 262 | 5.0 | 8.0 | 0.00 | 0.00 | 0.00 | 73 | 1010.9 |
| 20260903091601 | 56 | 235 | 3.0 | 8.0 | 0.00 | 0.00 | 0.00 | 74 | 1011.2 |
| 20260903090058 | 58 | 261 | 4.0 | 9.0 | 0.00 | 0.00 | 0.00 | 72 | 1011.2 |
| 20260903084601 | 58 | 262 | 4.0 | 9.0 | 0.00 | 0.00 | 0.00 | 72 | 1011.1 |
| 20260903083100 | 58 | 266 | 5.0 | 9.0 | 0.00 | 0.00 | 0.00 | 72 | 1011.2 |
| 20260903081559 | 58 | 270 | 5.0 | 10.0 | 0.00 | 0.00 | 0.00 | 72 | 1011.1 |
| 20260903080101 | 58 | 262 | 3.0 | 6.0 | 0.00 | 0.00 | 0.00 | 73 | 1011.4 |
| 20260903074558 | 59 | 286 | 2.0 | 4.0 | 0.00 | 0.00 | 0.00 | 73 | 1011.6 |
| 20260903073058 | 59 | 261 | 3.0 | 7.0 | 0.00 | 0.00 | 0.00 | 72 | 1011.6 |
| 20260903071607 | 59 | 260 | 3.0 | 6.0 | 0.00 | 0.00 | 0.00 | 73 | 1011.5 |
| 20260903070059 | 59 | 323 | 2.0 | 4.0 | 0.00 | 0.00 | 0.00 | 72 | 1011.6 |
| 20260903070003 | 59 | 322 | 2.0 | 4.0 | 0.00 | 0.00 | 0.00 | 72 | 1011.6 |
| 20260903064602 | 59 | 281 | 4.0 | 7.0 | 0.00 | 0.00 | 0.00 | 72 | 1011.5 |
| 20260903063101 | 60 | 268 | 3.0 | 9.0 | 0.00 | 0.00 | 0.00 | 71 | 1011.7 |
| 20260903063001 | 60 | 270 | 3.0 | 9.0 | 0.00 | 0.00 | 0.00 | 71 | 1011.7 |
| 20260903061605 | 60 | 329 | 1.0 | 6.0 | 0.00 | 0.00 | 0.00 | 71 | 1011.9 |
| 20260903060004 | 61 | 146 | 2.0 | 7.0 | 0.00 | 0.00 | 0.00 | 70 | 1011.9 |
| 20260903054600 | 61 | 269 | 3.0 | 6.0 | 0.00 | 0.00 | 0.00 | 70 | 1011.8 |
| 20260903053101 | 61 | 258 | 3.0 | 7.0 | 0.00 | 0.00 | 0.00 | 70 | 1012.0 |
| 20260903051614 | 61 | 263 | 2.0 | 6.0 | 0.00 | 0.00 | 0.00 | 69 | 1011.8 |
| 20260903050100 | 61 | 360 | 3.0 | 8.0 | 0.00 | 0.00 | 0.00 | 69 | 1012.1 |
| 20260903044601 | 61 | 360 | 3.0 | 7.0 | 0.00 | 0.00 | 0.00 | 69 | 1012.0 |
| 20260903043203 | 62 | 281 | 4.0 | 8.0 | 0.00 | 0.00 | 0.00 | 69 | 1011.9 |
| 20260903041606 | 62 | 269 | 5.0 | 10.0 | 0.00 | 0.00 | 0.00 | 68 | 1012.1 |
| 20260903040008 | 62 | 270 | 4.0 | 8.0 | 0.00 | 0.00 | 0.00 | 68 | 1012.0 |
| 20260903034600 | 63 | 300 | 5.0 | 9.0 | 0.00 | 0.00 | 0.00 | 67 | 1012.0 |
| 20260903034501 | 63 | 312 | 4.0 | 9.0 | 0.00 | 0.00 | 0.00 | 67 | 1012.0 |
| 20260903033002 | 64 | 261 | 4.0 | 9.0 | 0.00 | 0.00 | 0.00 | 66 | 1011.8 |
| 20260903031500 | 64 | 275 | 4.0 | 8.0 | 0.00 | 0.00 | 0.00 | 66 | 1011.8 |
| 20260903024605 | 65 | 271 | 3.0 | 6.0 | 0.00 | 0.00 | 0.00 | 64 | 1011.4 |
| 20260903023059 | 68 | 360 | 2.0 | 4.0 | 0.00 | 0.00 | 0.00 | 57 | 1011.2 |
| 20260903021600 | 69 | 317 | 0.0 | 2.0 | 0.00 | 0.00 | 0.00 | 55 | 1010.9 |
| 20260903020059 | 70 | 317 | 1.0 | 2.0 | 0.00 | 0.00 | 0.00 | 54 | 1010.9 |
| 20260903020010 | 70 | 317 | 1.0 | 2.0 | 0.00 | 0.00 | 0.00 | 54 | 1010.9 |
| 20260903014500 | 71 | 317 | 1.0 | 4.0 | 0.00 | 0.00 | 0.00 | 51 | 1010.8 |
| 20260903013108 | 71 | 302 | 1.0 | 3.0 | 0.00 | 0.00 | 0.00 | 53 | 1010.7 |
| 20260903013000 | 71 | 263 | 1.0 | 3.0 | 0.00 | 0.00 | 0.00 | 53 | 1010.7 |
| 20260903011501 | 72 | 262 | 2.0 | 3.0 | 0.00 | 0.00 | 0.00 | 50 | 1010.5 |
| 20260903010105 | 73 | 262 | 1.0 | 3.0 | 0.00 | 0.00 | 0.00 | 52 | 1010.5 |
| 20260903004605 | 73 | 82 | 1.0 | 5.0 | 0.00 | 0.00 | 0.00 | 52 | 1010.7 |
| 20260903003100 | 73 | 92 | 5.0 | 10.0 | 0.00 | 0.00 | 0.00 | 52 | 1010.8 |
| 20260903001559 | 73 | 132 | 5.0 | 11.0 | 0.00 | 0.00 | 0.00 | 53 | 1010.6 |
| 20260903000059 | 75 | 130 | 3.0 | 6.0 | 0.00 | 0.00 | 0.00 | 49 | 1010.5 |
| 20260902234615 | 75 | 106 | 6.0 | 11.0 | 0.00 | 0.00 | 0.00 | 50 | 1010.6 |
| 20260902233102 | 78 | 142 | 6.0 | 12.0 | 0.00 | 0.00 | 0.00 | 45 | 1010.4 |
| 20260902231610 | 78 | 53 | 1.0 | 6.0 | 0.00 | 0.00 | 0.00 | 44 | 1010.5 |
| 20260902230105 | 79 | 45 | 3.0 | 14.0 | 0.00 | 0.00 | 0.00 | 42 | 1010.6 |
| 20260902230001 | 79 | 76 | 4.0 | 14.0 | 0.00 | 0.00 | 0.00 | 41 | 1010.6 |
| 20260902224611 | 80 | 28 | 5.0 | 12.0 | 0.00 | 0.00 | 0.00 | 39 | 1010.7 |
| 20260902223059 | 82 | 100 | 5.0 | 10.0 | 0.00 | 0.00 | 0.00 | 37 | 1010.9 |
| 20260902221605 | 83 | 232 | 2.0 | 11.0 | 0.00 | 0.00 | 0.00 | 36 | 1011.1 |
| 20260902220059 | 82 | 282 | 3.0 | 9.0 | 0.00 | 0.00 | 0.00 | 35 | 1011.1 |
| 20260902214602 | 80 | 246 | 9.0 | 15.0 | 0.00 | 0.00 | 0.00 | 36 | 1011.2 |
| 20260902213113 | 79 | 230 | 3.0 | 9.0 | 0.00 | 0.00 | 0.00 | 37 | 1011.5 |
| 20260902211604 | 79 | 248 | 6.0 | 16.0 | 0.00 | 0.00 | 0.00 | 38 | 1011.6 |
| 20260902210100 | 80 | 286 | 5.0 | 13.0 | 0.00 | 0.00 | 0.00 | 38 | 1011.8 |
| 20260902204559 | 80 | 261 | 8.0 | 14.0 | 0.00 | 0.01 | 0.00 | 37 | 1012.1 |
| 20260902203106 | 78 | 286 | 4.0 | 14.0 | 0.00 | 0.01 | 0.00 | 39 | 1012.4 |